Regional Weather Roundup
Issued by NWS Green Bay, WI

Home | Current Version | Previous Version | Graphics & Text | Print | Product List | Glossary Off
Versions: 1 2 3 4 5 6 7 8 9 10 11 12 13 14 15 16 17 18 19 20 21 22 23 24 25 26 27 28 29 30 31 32 33 34 35 36 37 38 39 40 41 42 43 44 45 46 47 48 49 50

494
ASUS43 KGRB 230611
RWRGRB

NORTH-CENTRAL AND NORTHEAST WISCONSIN REGIONAL WEATHER ROUNDUP
NATIONAL WEATHER SERVICE GREEN BAY WI
100 AM CDT SUN APR 23 2017

WIZ005-009-010>012-018-019-230700-
NORTH CENTRAL WISCONSIN

CITY           SKY/WX    TMP DP  RH WIND       PRES   REMARKS
IRONWOOD       NOT AVBL
MANITOWISH WTR PTCLDY    42  35  75 CALM      30.03F
ARBOR VITAE    CLEAR     52  36  54 W3        30.03F
EAGLE RIVER    CLEAR     45  31  57 SW5       30.03F
LAND O LAKES   PTCLDY    39  34  80 CALM      30.05S
RHINELANDER    CLEAR     50  33  52 SW7       30.05F
PHILLIPS       CLOUDY    49  33  54 SW5       30.04F
ANTIGO         CLEAR     44  32  63 SW7       30.07F
TOMAHAWK       CLEAR     47  32  55 CALM      30.06F
MERRILL        CLEAR     46  33  61 W3        30.07F
$$

WIZ013-073-230700-
NORTHEAST WISCONSIN

CITY           SKY/WX    TMP DP  RH WIND       PRES   REMARKS
IRON MOUNTAIN  CLEAR     51  29  42 NW9       30.02S
MARINETTE      CLEAR     49  34  56 SW6       30.06F
OCONTO         CLEAR     48  33  55 SW5       30.07F
$$

WIZ017-030-035>037-045-230700-
CENTRAL WISCONSIN

CITY           SKY/WX    TMP DP  RH WIND       PRES   REMARKS
MEDFORD        CLEAR     49  32  52 SW5       30.08S
WAUSAU         CLEAR     53  31  42 SW8       30.07F
MOSINEE        CLEAR     45  32  61 SW6       30.10F
MARSHFIELD     CLEAR     48  31  51 SW6       30.08F
WISC RAPIDS    CLEAR     41  33  73 CALM      30.11F
STEVENS POINT  CLEAR     37  32  81 CALM      30.10F
WAUPACA        PTCLDY    42  33  71 CALM      30.11S
SHAWANO        CLEAR     50  32  50 CALM      30.09S
CLINTONVILLE   CLEAR     46  30  53 SW3       30.09F
WAUTOMA        CLEAR     37  33  85 MISG      30.12S
$$

WIZ038-039-048-051-230700-
FOX VALLEY

CITY           SKY/WX    TMP DP  RH WIND       PRES   REMARKS
NWS GREEN BAY  CLEAR     50  40  68 SW7       30.10S
APPLETON       CLEAR     46  32  57 SW9       30.09F
OSHKOSH        CLEAR     50  32  50 SW8       30.10F
FOND DU LAC    CLEAR     45  33  63 SW5       30.12S
$$

WIZ022-050-052-230700-
EAST CENTRAL WISCONSIN

CITY           SKY/WX    TMP DP  RH WIND       PRES   REMARKS
EPHRAIM        FAIR      54  31  40 SW10G17   30.04F
WASHINGTON ISL MOCLDY    49  32  51 SW13G24   30.03F
STURGEON BAY   CLEAR     53  30  41 SW9       30.07F
MANITOWOC      CLEAR     47  30  51 SW3       30.10F
SHEBOYGAN      CLEAR     42  31  64 SW6       30.11F
$$

LMZ563-521-522-541>543-230700-
LAKESHORE

STATION/POSITION TIME  TEMP    WIND        PRES    VSBY  WAVE
                       AIR SEA DIR/SP/G                  HT/PER
                 (UTC) (F)     (DEG/KT/KT) (MB)    (MI)  (FT/S)
SHEBOYGAN LKSHOR 0600   48     240/  7/  7 1019.6F
KEWAUNEE LKSHORE 0548   50     260/  8/ 12 1018.3F
NORTHPORT PIER   0540   56     240/  6/ 15 1016.9F
N MID LAKE BUOY  0550   41 37  200/ 14/ 16 1018.1F         2/ 4
SISTER BAY LKSHO 0536   56     220/ 14/ 19   N/A
CHAMBERS ISLAND  0540   50     200/ 11/ 17 1017.3F
MENOMINEE LKSHOR 0548   51     210/  9/ 13 1016.8F
$$




USA.gov is the U.S. government's official web portal to all federal, state and local government web resources and services.